| time (UTC) | temp F | wind direction | speed knots | gust knots | rain 1hr in | rain 24hr in | rain mn in | humidity % | barometer mb |
| 20260504081517 | 37 | 257 | 4.3 | 7.8 | 0.02 | 0.45 | 0.09 | 96 | 977.2 |
| 20260504050123 | 40 | 4 | 0.9 | 3.5 | 0.00 | 0.36 | 0.00 | 88 | 975.5 |
| 20260504044551 | 40 | 278 | 0.0 | 5.2 | 0.00 | 0.36 | 0.00 | 87 | 975.8 |
| 20260504043052 | 41 | 212 | 0.0 | 5.2 | 0.00 | 0.36 | 0.00 | 87 | 976.1 |
| 20260504041546 | 41 | 27 | 3.5 | 7.8 | 0.00 | 0.36 | 0.00 | 85 | 976.7 |
| 20260504040042 | 42 | 190 | 1.7 | 10.4 | 0.00 | 0.36 | 0.00 | 84 | 977.2 |
| 20260504034548 | 42 | 98 | 4.3 | 20.9 | 0.00 | 0.36 | 0.00 | 85 | 977.3 |
| 20260504033043 | 42 | 55 | 1.7 | 11.3 | 0.00 | 0.36 | 0.00 | 86 | 977.5 |
| 20260504031549 | 42 | 195 | 7.0 | 19.1 | 0.00 | 0.36 | 0.00 | 87 | 978.0 |
| 20260504030040 | 42 | 291 | 5.2 | 13.9 | 0.00 | 0.36 | 0.00 | 86 | 977.7 |
| 20260504024533 | 42 | 81 | 7.0 | 18.2 | 0.00 | 0.36 | 0.36 | 86 | 977.3 |
| 20260504023029 | 42 | 98 | 3.5 | 23.5 | 0.00 | 0.36 | 0.36 | 85 | 978.7 |
| 20260504021528 | 42 | 287 | 4.3 | 26.9 | 0.00 | 0.36 | 0.36 | 84 | 979.2 |
| 20260504020030 | 42 | 96 | 16.5 | 37.4 | 0.00 | 0.36 | 0.36 | 83 | 979.6 |
| 20260504014526 | 41 | 90 | 28.7 | 57.4 | 0.01 | 0.36 | 0.36 | 84 | 979.3 |
| 20260504013027 | 42 | 89 | 34.8 | 63.4 | 0.02 | 0.36 | 0.36 | 84 | 980.3 |
| 20260504011524 | 42 | 92 | 33.9 | 58.2 | 0.02 | 0.36 | 0.36 | 85 | 980.4 |
| 20260504010022 | 42 | 94 | 34.8 | 58.2 | 0.03 | 0.36 | 0.36 | 86 | 981.6 |
| 20260504004523 | 42 | 110 | 38.2 | 60.0 | 0.04 | 0.35 | 0.35 | 86 | 981.1 |
| 20260504003019 | 41 | 102 | 35.6 | 58.2 | 0.04 | 0.34 | 0.34 | 89 | 981.8 |
| 20260504001517 | 41 | 130 | 27.8 | 48.7 | 0.04 | 0.34 | 0.34 | 93 | 983.5 |
| 20260504000015 | 40 | 103 | 30.4 | 55.6 | 0.03 | 0.33 | 0.33 | 93 | 984.5 |
| 20260503234511 | 41 | 18 | 23.5 | 41.7 | 0.01 | 0.31 | 0.31 | 93 | 985.8 |
| 20260503233007 | 41 | 73 | 8.7 | 20.0 | 0.04 | 0.30 | 0.30 | 95 | 987.9 |
| 20260503231505 | 40 | 55 | 8.7 | 20.0 | 0.08 | 0.30 | 0.30 | 95 | 989.4 |
| 20260503230001 | 40 | 39 | 10.4 | 20.0 | 0.10 | 0.30 | 0.30 | 97 | 991.3 |
| 20260503224559 | 38 | 15 | 3.5 | 9.6 | 0.11 | 0.30 | 0.30 | 96 | 992.1 |
| 20260503223056 | 38 | 43 | 5.2 | 8.7 | 0.11 | 0.27 | 0.27 | 95 | 993.0 |
| 20260503221552 | 38 | 45 | 3.5 | 7.0 | 0.10 | 0.22 | 0.22 | 95 | 994.1 |
| 20260503220051 | 38 | 14 | 3.5 | 7.8 | 0.09 | 0.20 | 0.20 | 95 | 994.6 |
| 20260503214556 | 38 | 323 | 2.6 | 15.6 | 0.08 | 0.19 | 0.19 | 94 | 994.8 |
| 20260503213117 | 38 | 49 | 8.7 | 23.5 | 0.06 | 0.16 | 0.16 | 93 | 994.5 |
| 20260503211613 | 40 | 28 | 10.4 | 23.5 | 0.03 | 0.12 | 0.12 | 89 | 995.4 |
| 20260503210043 | 41 | 21 | 8.7 | 13.9 | 0.05 | 0.11 | 0.11 | 92 | 996.0 |
| 20260503204557 | 41 | 46 | 8.7 | 13.9 | 0.07 | 0.11 | 0.11 | 91 | 996.5 |
| 20260503203039 | 41 | 18 | 8.7 | 18.2 | 0.08 | 0.10 | 0.10 | 89 | 997.6 |
| 20260503201533 | 41 | 29 | 7.8 | 13.0 | 0.09 | 0.09 | 0.09 | 89 | 998.5 |
| 20260503200031 | 41 | 6 | 7.0 | 15.6 | 0.06 | 0.06 | 0.06 | 87 | 999.2 |
| 20260503194528 | 42 | 16 | 8.7 | 19.1 | 0.04 | 0.04 | 0.04 | 84 | 1000.1 |
| 20260503193024 | 43 | 51 | 7.0 | 20.9 | 0.02 | 0.02 | 0.02 | 80 | 1001.2 |
| 20260503191519 | 44 | 44 | 13.0 | 24.3 | 0.00 | 0.00 | 0.00 | 71 | 1002.4 |
| 20260503190016 | 47 | 31 | 5.2 | 23.5 | 0.00 | 0.00 | 0.00 | 63 | 1002.9 |
| 20260503184516 | 48 | 97 | 7.0 | 21.7 | 0.00 | 0.00 | 0.00 | 55 | 1003.2 |
| 20260503183013 | 49 | 72 | 14.8 | 25.2 | 0.00 | 0.00 | 0.00 | 50 | 1004.2 |
| 20260503181513 | 50 | 107 | 14.8 | 24.3 | 0.00 | 0.00 | 0.00 | 42 | 1004.4 |
| 20260503180024 | 51 | 79 | 13.0 | 24.3 | 0.00 | 0.00 | 0.00 | 36 | 1004.6 |
| 20260503174519 | 52 | 113 | 13.9 | 25.2 | 0.00 | 0.00 | 0.00 | 35 | 1004.7 |
| 20260503173012 | 51 | 88 | 15.6 | 24.3 | 0.00 | 0.00 | 0.00 | 36 | 1005.8 |
| 20260503171515 | 51 | 112 | 20.9 | 31.3 | 0.00 | 0.00 | 0.00 | 34 | 1006.1 |